Time,TemperatureF,DewpointF,PressureIn,WindDirection,WindDirectionDegrees,WindSpeedMPH,WindSpeedGustMPH,Humidity,HourlyPrecipIn,Conditions,Clouds,dailyrainin,SoftwareType,DateUTC
2013-02-17 00:01:00,33.3,-0.6,29.85,SSE,158,2.3,3.8,23,0.00,,,0.00,WSDL version 420,2013-02-17 06:01:00,
2013-02-17 00:07:00,33.3,-0.6,29.85,SSE,158,2.7,3.8,23,0.00,,,0.00,WSDL version 420,2013-02-17 06:07:00,
2013-02-17 00:13:00,33.3,-0.6,29.85,South,174,3.2,5.4,23,0.00,,,0.00,WSDL version 420,2013-02-17 06:13:00,
2013-02-17 00:19:00,33.3,-0.6,29.85,SSE,158,3.3,5.4,23,0.00,,,0.00,WSDL version 420,2013-02-17 06:19:00,
2013-02-17 00:25:00,33.3,-0.6,29.85,SSE,158,3.4,4.3,23,0.00,,,0.00,WSDL version 420,2013-02-17 06:25:00,
2013-02-17 00:31:00,33.3,-0.5,29.83,SSE,158,3.3,4.3,23,0.00,,,0.00,WSDL version 420,2013-02-17 06:31:00,
2013-02-17 00:37:00,33.4,-0.4,29.83,SSE,161,2.7,4.3,23,0.00,,,0.00,WSDL version 420,2013-02-17 06:37:00,
2013-02-17 00:43:00,33.4,-0.4,29.83,SE,138,2.7,4.0,23,0.00,,,0.00,WSDL version 420,2013-02-17 06:43:00,
2013-02-17 00:49:00,33.4,-0.4,29.83,SSE,152,2.2,3.4,23,0.00,,,0.00,WSDL version 420,2013-02-17 06:49:00,
2013-02-17 00:55:00,33.4,-0.4,29.83,SE,135,2.0,2.9,23,0.00,,,0.00,WSDL version 420,2013-02-17 06:55:00,
2013-02-17 01:01:00,33.4,-0.4,29.83,SSE,158,1.5,2.5,23,0.00,,,0.00,WSDL version 420,2013-02-17 07:01:00,
2013-02-17 01:07:00,33.5,-0.4,29.83,SSE,158,1.8,2.9,23,0.00,,,0.00,WSDL version 420,2013-02-17 07:07:00,
2013-02-17 01:13:00,33.6,-0.3,29.85,SE,146,2.5,2.9,23,0.00,,,0.00,WSDL version 420,2013-02-17 07:13:00,
2013-02-17 01:19:00,33.5,-0.4,29.85,SE,135,1.9,2.9,23,0.00,,,0.00,WSDL version 420,2013-02-17 07:19:00,
2013-02-17 01:25:00,33.6,-0.3,29.85,SSE,158,2.6,3.4,23,0.00,,,0.00,WSDL version 420,2013-02-17 07:25:00,
2013-02-17 01:31:00,33.6,-0.3,29.85,SSE,158,2.9,5.6,23,0.00,,,0.00,WSDL version 420,2013-02-17 07:31:00,
2013-02-17 01:37:00,33.6,-0.3,29.85,SE,138,2.8,4.3,23,0.00,,,0.00,WSDL version 420,2013-02-17 07:37:00,
2013-02-17 01:43:00,33.6,-0.3,29.83,SSE,163,2.5,4.3,23,0.00,,,0.00,WSDL version 420,2013-02-17 07:43:00,
2013-02-17 01:49:00,33.6,-0.3,29.83,SSE,158,2.6,4.0,23,0.00,,,0.00,WSDL version 420,2013-02-17 07:49:00,
2013-02-17 01:55:00,33.6,-0.3,29.83,SE,146,2.5,3.6,23,0.00,,,0.00,WSDL version 420,2013-02-17 07:55:00,
2013-02-17 02:01:00,33.6,-0.3,29.83,SSE,158,2.3,3.4,23,0.00,,,0.00,WSDL version 420,2013-02-17 08:01:00,
2013-02-17 02:07:00,33.6,-0.3,29.83,SSE,158,2.1,2.9,23,0.00,,,0.00,WSDL version 420,2013-02-17 08:07:00,
2013-02-17 02:10:00,33.6,-0.3,29.83,SSE,158,2.1,2.9,23,0.00,,,0.00,WSDL version 420,2013-02-17 08:10:00,
2013-02-17 02:16:00,33.6,-0.3,29.85,SSE,165,1.3,2.7,23,0.00,,,0.00,WSDL version 420,2013-02-17 08:16:00,
2013-02-17 02:22:00,33.7,-0.6,29.85,SSE,162,2.8,3.6,22,0.00,,,0.00,WSDL version 420,2013-02-17 08:22:00,
2013-02-17 02:28:00,33.8,-1.1,29.85,SSE,158,2.9,3.8,22,0.00,,,0.00,WSDL version 420,2013-02-17 08:28:00,
2013-02-17 02:34:00,33.8,-1.1,29.85,SSE,163,2.4,3.8,22,0.00,,,0.00,WSDL version 420,2013-02-17 08:34:00,
2013-02-17 02:40:00,33.8,-1.1,29.85,South,188,2.8,3.8,22,0.00,,,0.00,WSDL version 420,2013-02-17 08:40:00,
2013-02-17 02:46:00,33.8,-1.0,29.83,SSE,158,3.1,4.9,22,0.00,,,0.00,WSDL version 420,2013-02-17 08:46:00,
2013-02-17 02:52:00,34.0,-0.9,29.83,SSE,161,3.4,5.4,22,0.00,,,0.00,WSDL version 420,2013-02-17 08:52:00,
2013-02-17 02:58:00,34.0,-0.9,29.83,South,169,3.1,5.4,22,0.00,,,0.00,WSDL version 420,2013-02-17 08:58:00,
2013-02-17 03:04:00,34.0,-0.9,29.83,SSE,163,2.8,4.0,22,0.00,,,0.00,WSDL version 420,2013-02-17 09:04:00,
2013-02-17 03:10:00,34.0,-0.9,29.83,SSE,164,3.4,6.5,22,0.00,,,0.00,WSDL version 420,2013-02-17 09:10:00,
2013-02-17 03:16:00,34.0,-0.9,29.83,South,171,3.2,6.5,22,0.00,,,0.00,WSDL version 420,2013-02-17 09:16:00,
2013-02-17 03:22:00,34.0,-0.9,29.83,SSE,158,3.2,4.0,22,0.00,,,0.00,WSDL version 420,2013-02-17 09:22:00,
2013-02-17 03:28:00,34.2,-0.8,29.83,South,174,3.2,5.8,22,0.00,,,0.00,WSDL version 420,2013-02-17 09:28:00,
2013-02-17 03:34:00,34.2,-0.8,29.83,South,174,2.7,4.9,22,0.00,,,0.00,WSDL version 420,2013-02-17 09:34:00,
2013-02-17 03:40:00,34.2,-0.8,29.83,South,169,3.1,3.8,22,0.00,,,0.00,WSDL version 420,2013-02-17 09:40:00,
2013-02-17 03:46:00,34.2,-0.8,29.83,SSE,158,2.8,4.9,22,0.00,,,0.00,WSDL version 420,2013-02-17 09:46:00,
2013-02-17 03:52:00,34.3,-0.6,29.83,SSE,163,2.9,4.7,22,0.00,,,0.00,WSDL version 420,2013-02-17 09:52:00,
2013-02-17 03:58:00,34.3,-0.6,29.83,SSE,164,2.2,4.7,22,0.00,,,0.00,WSDL version 420,2013-02-17 09:58:00,
2013-02-17 04:04:00,34.3,-0.7,29.83,South,174,3.4,4.9,22,0.00,,,0.00,WSDL version 420,2013-02-17 10:04:00,
2013-02-17 04:10:00,34.3,-0.7,29.83,SSE,164,2.4,4.9,22,0.00,,,0.00,WSDL version 420,2013-02-17 10:10:00,
2013-02-17 04:16:00,34.2,-0.8,29.80,South,173,2.0,4.7,22,0.00,,,0.00,WSDL version 420,2013-02-17 10:16:00,
2013-02-17 04:22:00,34.2,-0.8,29.80,SSE,158,1.5,3.1,22,0.00,,,0.00,WSDL version 420,2013-02-17 10:22:00,
2013-02-17 04:28:00,34.2,-0.8,29.80,SSE,158,2.1,2.9,22,0.00,,,0.00,WSDL version 420,2013-02-17 10:28:00,
2013-02-17 04:34:00,34.2,-0.8,29.80,SSE,158,2.1,3.4,22,0.00,,,0.00,WSDL version 420,2013-02-17 10:34:00,
2013-02-17 04:40:00,34.3,-0.6,29.80,SSE,163,2.2,3.4,22,0.00,,,0.00,WSDL version 420,2013-02-17 10:40:00,
2013-02-17 04:46:00,34.3,-0.6,29.80,SSE,158,2.7,3.6,22,0.00,,,0.00,WSDL version 420,2013-02-17 10:46:00,
2013-02-17 04:52:00,34.3,-0.6,29.80,SSE,158,2.9,3.6,22,0.00,,,0.00,WSDL version 420,2013-02-17 10:52:00,
2013-02-17 04:58:00,34.3,-0.6,29.83,SSE,155,2.8,4.0,22,0.00,,,0.00,WSDL version 420,2013-02-17 10:58:00,
2013-02-17 05:04:00,34.3,-0.6,29.83,SSE,158,2.9,4.0,22,0.00,,,0.00,WSDL version 420,2013-02-17 11:04:00,
2013-02-17 05:10:00,34.3,-0.6,29.83,SSE,158,2.5,5.4,22,0.00,,,0.00,WSDL version 420,2013-02-17 11:10:00,
2013-02-17 05:16:00,34.3,-0.6,29.83,SSE,158,2.4,4.3,22,0.00,,,0.00,WSDL version 420,2013-02-17 11:16:00,
2013-02-17 05:22:00,34.3,-0.6,29.83,SSE,158,2.8,4.3,22,0.00,,,0.00,WSDL version 420,2013-02-17 11:22:00,
2013-02-17 05:28:00,34.3,-0.6,29.83,SSE,162,2.1,3.1,22,0.00,,,0.00,WSDL version 420,2013-02-17 11:28:00,
2013-02-17 05:34:00,34.5,-0.5,29.83,SSE,154,2.6,3.8,22,0.00,,,0.00,WSDL version 420,2013-02-17 11:34:00,
2013-02-17 05:40:00,34.5,-0.4,29.83,SSE,158,2.4,4.3,22,0.00,,,0.00,WSDL version 420,2013-02-17 11:40:00,
2013-02-17 05:46:00,34.5,-0.4,29.83,SSE,158,2.8,4.3,22,0.00,,,0.00,WSDL version 420,2013-02-17 11:46:00,
2013-02-17 05:52:00,34.5,-0.4,29.83,SSE,152,3.0,4.3,22,0.00,,,0.00,WSDL version 420,2013-02-17 11:52:00,
2013-02-17 05:58:00,34.5,-0.4,29.83,SSE,155,3.1,5.4,22,0.00,,,0.00,WSDL version 420,2013-02-17 11:58:00,
2013-02-17 06:04:00,34.5,-0.4,29.83,SSE,165,2.3,5.4,22,0.00,,,0.00,WSDL version 420,2013-02-17 12:04:00,
2013-02-17 06:10:00,34.5,-0.4,29.83,SSE,161,2.5,3.8,22,0.00,,,0.00,WSDL version 420,2013-02-17 12:10:00,
2013-02-17 06:16:00,34.5,-0.4,29.83,SSE,160,2.4,4.0,22,0.00,,,0.00,WSDL version 420,2013-02-17 12:16:00,
2013-02-17 06:22:00,34.5,-0.4,29.83,SSE,151,2.1,3.8,22,0.00,,,0.00,WSDL version 420,2013-02-17 12:22:00,
2013-02-17 06:28:00,34.5,-0.4,29.80,SSE,167,3.1,4.9,22,0.00,,,0.00,WSDL version 420,2013-02-17 12:28:00,
2013-02-17 06:34:00,34.5,-0.4,29.80,SSE,158,2.5,4.9,22,0.00,,,0.00,WSDL version 420,2013-02-17 12:34:00,
2013-02-17 06:40:00,34.7,-0.3,29.80,SSE,151,2.8,4.9,22,0.00,,,0.00,WSDL version 420,2013-02-17 12:40:00,
2013-02-17 06:46:00,34.7,-0.3,29.83,SSE,151,3.0,4.3,22,0.00,,,0.00,WSDL version 420,2013-02-17 12:46:00,
2013-02-17 06:52:00,34.7,-0.3,29.83,SSE,154,3.7,4.9,22,0.00,,,0.00,WSDL version 420,2013-02-17 12:52:00,
2013-02-17 06:58:00,34.7,-0.3,29.80,SSE,154,3.4,5.6,22,0.00,,,0.00,WSDL version 420,2013-02-17 12:58:00,
2013-02-17 07:04:00,34.7,-0.3,29.80,SSE,163,3.4,5.6,22,0.00,,,0.00,WSDL version 420,2013-02-17 13:04:00,
2013-02-17 07:10:00,34.8,-0.2,29.80,SSE,161,3.5,5.8,22,0.00,,,0.00,WSDL version 420,2013-02-17 13:10:00,
2013-02-17 07:16:00,34.9,-0.1,29.80,SSE,161,2.4,5.8,22,0.00,,,0.00,WSDL version 420,2013-02-17 13:16:00,
2013-02-17 07:22:00,34.9,-0.1,29.80,SSE,158,3.6,5.4,22,0.00,,,0.00,WSDL version 420,2013-02-17 13:22:00,
2013-02-17 07:28:00,35.1,0.0,29.83,South,170,4.2,5.8,22,0.00,,,0.00,WSDL version 420,2013-02-17 13:28:00,
2013-02-17 07:34:00,35.2,0.1,29.83,South,186,3.8,8.9,22,0.00,,,0.00,WSDL version 420,2013-02-17 13:34:00,
2013-02-17 07:40:00,35.2,0.2,29.83,SSE,165,3.8,8.5,22,0.00,,,0.00,WSDL version 420,2013-02-17 13:40:00,
2013-02-17 07:46:00,35.4,0.3,29.83,SSE,163,2.9,6.0,22,0.00,,,0.00,WSDL version 420,2013-02-17 13:46:00,
2013-02-17 07:52:00,35.5,0.4,29.83,SSE,163,3.4,6.5,22,0.00,,,0.00,WSDL version 420,2013-02-17 13:52:00,
2013-02-17 07:58:00,35.7,0.5,29.83,SSE,152,3.1,5.8,22,0.00,,,0.00,WSDL version 420,2013-02-17 13:58:00,
2013-02-17 08:04:00,35.8,0.7,29.83,South,176,2.7,3.8,22,0.00,,,0.00,WSDL version 420,2013-02-17 14:04:00,
2013-02-17 08:10:00,36.0,0.8,29.83,SSE,165,3.4,6.5,22,0.00,,,0.00,WSDL version 420,2013-02-17 14:10:00,
2013-02-17 08:16:00,36.1,0.9,29.83,SSE,163,4.3,6.5,22,0.00,,,0.00,WSDL version 420,2013-02-17 14:16:00,
2013-02-17 08:22:00,36.3,1.1,29.83,SSE,161,5.7,8.1,22,0.00,,,0.00,WSDL version 420,2013-02-17 14:22:00,
2013-02-17 08:28:00,36.5,1.2,29.83,South,169,3.5,8.1,22,0.00,,,0.00,WSDL version 420,2013-02-17 14:28:00,
2013-02-17 08:34:00,36.7,1.4,29.83,SSE,149,3.9,9.6,22,0.00,,,0.00,WSDL version 420,2013-02-17 14:34:00,
2013-02-17 08:40:00,37.0,1.6,29.83,SSE,167,4.1,9.6,22,0.00,,,0.00,WSDL version 420,2013-02-17 14:40:00,
2013-02-17 08:46:00,37.2,1.8,29.83,SSE,158,4.8,7.8,22,0.00,,,0.00,WSDL version 420,2013-02-17 14:46:00,
2013-02-17 08:52:00,37.5,1.0,29.83,SSW,199,3.4,9.6,21,0.00,,,0.00,WSDL version 420,2013-02-17 14:52:00,
2013-02-17 08:58:00,37.9,1.4,29.83,SSE,151,4.0,9.6,21,0.00,,,0.00,WSDL version 420,2013-02-17 14:58:00,
2013-02-17 09:04:00,38.2,1.7,29.83,South,177,3.5,7.4,21,0.00,,,0.00,WSDL version 420,2013-02-17 15:04:00,
2013-02-17 09:10:00,38.7,2.1,29.83,SSE,162,3.0,6.3,21,0.00,,,0.00,WSDL version 420,2013-02-17 15:10:00,
2013-02-17 09:16:00,39.0,2.4,29.83,SW,221,3.4,6.3,21,0.00,,,0.00,WSDL version 420,2013-02-17 15:16:00,
2013-02-17 09:22:00,39.6,2.8,29.83,South,174,3.1,7.8,21,0.00,,,0.00,WSDL version 420,2013-02-17 15:22:00,
2013-02-17 09:28:00,39.8,3.0,29.83,South,184,2.8,7.8,21,0.00,,,0.00,WSDL version 420,2013-02-17 15:28:00,
2013-02-17 09:34:00,40.2,3.4,29.83,SW,218,2.7,7.8,21,0.00,,,0.00,WSDL version 420,2013-02-17 15:34:00,
2013-02-17 09:40:00,40.6,3.7,29.83,SSE,155,5.4,9.6,21,0.00,,,0.00,WSDL version 420,2013-02-17 15:40:00,
2013-02-17 09:46:00,40.6,3.7,29.83,SSE,161,6.6,10.1,21,0.00,,,0.00,WSDL version 420,2013-02-17 15:46:00,
2013-02-17 09:52:00,41.2,4.2,29.83,SSE,149,6.3,10.1,21,0.00,,,0.00,WSDL version 420,2013-02-17 15:52:00,
2013-02-17 09:58:00,42.0,4.8,29.83,South,180,3.7,10.1,21,0.00,,,0.00,WSDL version 420,2013-02-17 15:58:00,
2013-02-17 10:04:00,42.4,5.2,29.83,South,184,5.4,14.1,21,0.00,,,0.00,WSDL version 420,2013-02-17 16:04:00,
2013-02-17 10:10:00,42.9,4.6,29.83,SSW,203,3.4,14.1,20,0.00,,,0.00,WSDL version 420,2013-02-17 16:10:00,
2013-02-17 10:16:00,43.3,4.9,29.83,South,180,4.3,7.6,20,0.00,,,0.00,WSDL version 420,2013-02-17 16:16:00,
2013-02-17 10:22:00,44.1,5.6,29.83,South,170,5.7,9.6,20,0.00,,,0.00,WSDL version 420,2013-02-17 16:22:00,
2013-02-17 10:28:00,44.2,5.7,29.83,SSE,167,3.0,9.6,20,0.00,,,0.00,WSDL version 420,2013-02-17 16:28:00,
2013-02-17 10:34:00,44.4,5.8,29.83,SW,229,5.0,10.7,20,0.00,,,0.00,WSDL version 420,2013-02-17 16:34:00,
2013-02-17 10:40:00,44.9,6.2,29.83,SSW,195,3.5,12.1,20,0.00,,,0.00,WSDL version 420,2013-02-17 16:40:00,
2013-02-17 10:46:00,45.1,6.4,29.83,SW,215,4.2,8.9,20,0.00,,,0.00,WSDL version 420,2013-02-17 16:46:00,
2013-02-17 10:52:00,45.4,6.6,29.83,South,172,5.8,13.0,20,0.00,,,0.00,WSDL version 420,2013-02-17 16:52:00,
2013-02-17 10:58:00,45.4,6.6,29.83,SSW,203,5.0,13.0,20,0.00,,,0.00,WSDL version 420,2013-02-17 16:58:00,
2013-02-17 11:04:00,45.5,6.7,29.83,South,191,6.0,10.7,20,0.00,,,0.00,WSDL version 420,2013-02-17 17:04:00,
2013-02-17 11:10:00,45.8,7.0,29.83,SSE,158,5.6,11.0,20,0.00,,,0.00,WSDL version 420,2013-02-17 17:10:00,
2013-02-17 11:16:00,46.1,7.2,29.83,South,180,3.3,13.2,20,0.00,,,0.00,WSDL version 420,2013-02-17 17:16:00,
2013-02-17 11:22:00,46.6,6.5,29.83,SSE,150,5.7,13.2,19,0.00,,,0.00,WSDL version 420,2013-02-17 17:22:00,
2013-02-17 11:28:00,47.2,7.0,29.80,South,171,5.1,10.1,19,0.00,,,0.00,WSDL version 420,2013-02-17 17:28:00,
2013-02-17 11:34:00,47.6,7.4,29.80,SE,145,8.0,10.5,19,0.00,,,0.00,WSDL version 420,2013-02-17 17:34:00,
2013-02-17 11:40:00,47.8,7.6,29.80,SSE,158,6.7,10.5,19,0.00,,,0.00,WSDL version 420,2013-02-17 17:40:00,
2013-02-17 11:46:00,48.2,7.9,29.80,SE,144,6.8,10.3,19,0.00,,,0.00,WSDL version 420,2013-02-17 17:46:00,
2013-02-17 11:52:00,48.4,8.0,29.80,South,180,5.1,10.7,19,0.00,,,0.00,WSDL version 420,2013-02-17 17:52:00,
2013-02-17 11:58:00,48.9,8.5,29.80,SSE,150,5.9,8.1,19,0.00,,,0.00,WSDL version 420,2013-02-17 17:58:00,
2013-02-17 12:04:00,48.9,8.4,29.80,South,169,3.4,16.3,19,0.00,,,0.00,WSDL version 420,2013-02-17 18:04:00,
2013-02-17 12:10:00,49.2,8.7,29.80,South,186,8.7,14.5,19,0.00,,,0.00,WSDL version 420,2013-02-17 18:10:00,
2013-02-17 12:16:00,49.4,8.8,29.80,South,173,4.0,14.5,19,0.00,,,0.00,WSDL version 420,2013-02-17 18:16:00,
2013-02-17 12:22:00,49.8,9.2,29.80,South,169,7.4,10.7,19,0.00,,,0.00,WSDL version 420,2013-02-17 18:22:00,
2013-02-17 12:28:00,50.0,9.3,29.77,SW,214,4.0,10.7,19,0.00,,,0.00,WSDL version 420,2013-02-17 18:28:00,
2013-02-17 12:34:00,50.1,9.5,29.77,SSE,167,3.9,10.7,19,0.00,,,0.00,WSDL version 420,2013-02-17 18:34:00,
2013-02-17 12:40:00,50.2,9.5,29.77,SE,135,5.0,9.8,19,0.00,,,0.00,WSDL version 420,2013-02-17 18:40:00,
2013-02-17 12:46:00,50.6,9.9,29.77,SSE,154,8.6,10.5,19,0.00,,,0.00,WSDL version 420,2013-02-17 18:46:00,
2013-02-17 12:52:00,50.7,10.0,29.77,SSE,149,7.5,10.5,19,0.00,,,0.00,WSDL version 420,2013-02-17 18:52:00,
2013-02-17 12:58:00,51.0,10.2,29.77,South,176,7.6,10.5,19,0.00,,,0.00,WSDL version 420,2013-02-17 18:58:00,
2013-02-17 13:04:00,51.4,10.5,29.77,SW,225,4.6,10.3,19,0.00,,,0.00,WSDL version 420,2013-02-17 19:04:00,
2013-02-17 13:10:00,51.6,10.6,29.77,South,173,4.5,12.3,19,0.00,,,0.00,WSDL version 420,2013-02-17 19:10:00,
2013-02-17 13:16:00,51.6,10.6,29.77,SSE,155,6.1,12.3,19,0.00,,,0.00,WSDL version 420,2013-02-17 19:16:00,
2013-02-17 13:22:00,51.9,9.7,29.77,South,169,5.2,11.0,18,0.00,,,0.00,WSDL version 420,2013-02-17 19:22:00,
2013-02-17 13:28:00,52.3,10.1,29.74,SE,141,7.2,9.8,18,0.00,,,0.00,WSDL version 420,2013-02-17 19:28:00,
2013-02-17 13:34:00,52.4,10.2,29.74,SE,146,4.8,12.8,18,0.00,,,0.00,WSDL version 420,2013-02-17 19:34:00,
2013-02-17 13:40:00,52.7,10.4,29.74,South,173,4.4,12.8,18,0.00,,,0.00,WSDL version 420,2013-02-17 19:40:00,
2013-02-17 13:46:00,53.1,10.7,29.74,SE,141,4.5,7.8,18,0.00,,,0.00,WSDL version 420,2013-02-17 19:46:00,
2013-02-17 13:52:00,53.3,10.9,29.74,SSW,197,4.6,10.3,18,0.00,,,0.00,WSDL version 420,2013-02-17 19:52:00,
2013-02-17 13:58:00,53.7,11.2,29.71,SSE,154,7.0,10.7,18,0.00,,,0.00,WSDL version 420,2013-02-17 19:58:00,
2013-02-17 14:04:00,53.9,11.3,29.71,SE,135,8.4,12.3,18,0.00,,,0.00,WSDL version 420,2013-02-17 20:04:00,
2013-02-17 14:10:00,54.0,11.4,29.71,South,180,3.9,12.3,18,0.00,,,0.00,WSDL version 420,2013-02-17 20:10:00,
2013-02-17 14:16:00,54.1,11.6,29.74,SE,146,6.9,10.7,18,0.00,,,0.00,WSDL version 420,2013-02-17 20:16:00,
2013-02-17 14:22:00,54.4,11.8,29.74,SSE,153,7.4,10.7,18,0.00,,,0.00,WSDL version 420,2013-02-17 20:22:00,
2013-02-17 14:28:00,54.8,12.1,29.71,South,188,2.5,10.7,18,0.00,,,0.00,WSDL version 420,2013-02-17 20:28:00,
2013-02-17 14:34:00,55.5,11.4,29.71,SE,143,7.2,12.1,17,0.00,,,0.00,WSDL version 420,2013-02-17 20:34:00,
2013-02-17 14:40:00,55.9,11.8,29.71,SSE,158,4.8,12.1,17,0.00,,,0.00,WSDL version 420,2013-02-17 20:40:00,
2013-02-17 14:46:00,55.9,11.8,29.74,SSE,158,5.8,10.5,17,0.00,,,0.00,WSDL version 420,2013-02-17 20:46:00,
2013-02-17 14:52:00,56.2,11.9,29.74,South,180,4.0,12.1,17,0.00,,,0.00,WSDL version 420,2013-02-17 20:52:00,
2013-02-17 14:58:00,56.3,12.0,29.74,SW,225,4.9,10.7,17,0.00,,,0.00,WSDL version 420,2013-02-17 20:58:00,
2013-02-17 15:04:00,56.2,12.0,29.74,SSE,167,8.1,13.2,17,0.00,,,0.00,WSDL version 420,2013-02-17 21:04:00,
2013-02-17 15:10:00,56.2,12.0,29.74,SSE,158,5.0,14.5,17,0.00,,,0.00,WSDL version 420,2013-02-17 21:10:00,
2013-02-17 15:16:00,56.4,12.1,29.74,SSE,148,6.9,13.0,17,0.00,,,0.00,WSDL version 420,2013-02-17 21:16:00,
2013-02-17 15:22:00,56.8,12.4,29.74,South,173,5.4,10.3,17,0.00,,,0.00,WSDL version 420,2013-02-17 21:22:00,
2013-02-17 15:28:00,57.1,12.7,29.74,SSE,158,4.5,10.3,17,0.00,,,0.00,WSDL version 420,2013-02-17 21:28:00,
2013-02-17 15:34:00,57.4,13.0,29.74,SSE,149,7.0,12.1,17,0.00,,,0.00,WSDL version 420,2013-02-17 21:34:00,
2013-02-17 15:40:00,57.5,13.1,29.74,SSE,161,5.5,13.2,17,0.00,,,0.00,WSDL version 420,2013-02-17 21:40:00,
2013-02-17 15:46:00,58.0,13.5,29.74,SSE,162,5.5,13.2,17,0.00,,,0.00,WSDL version 420,2013-02-17 21:46:00,
2013-02-17 15:52:00,58.1,13.5,29.74,SSE,167,6.5,12.5,17,0.00,,,0.00,WSDL version 420,2013-02-17 21:52:00,
2013-02-17 15:58:00,58.3,13.7,29.74,SSE,154,6.1,12.5,17,0.00,,,0.00,WSDL version 420,2013-02-17 21:58:00,
2013-02-17 16:04:00,58.6,14.0,29.74,SSE,167,5.1,8.7,17,0.00,,,0.00,WSDL version 420,2013-02-17 22:04:00,
2013-02-17 16:10:00,59.1,14.3,29.74,SW,225,2.7,8.5,17,0.00,,,0.00,WSDL version 420,2013-02-17 22:10:00,
2013-02-17 16:16:00,58.5,13.8,29.74,SSE,158,7.0,10.3,17,0.00,,,0.00,WSDL version 420,2013-02-17 22:16:00,
2013-02-17 16:22:00,58.5,13.8,29.74,SSE,154,4.4,10.7,17,0.00,,,0.00,WSDL version 420,2013-02-17 22:22:00,
2013-02-17 16:28:00,58.8,14.1,29.74,SE,143,6.9,10.3,17,0.00,,,0.00,WSDL version 420,2013-02-17 22:28:00,
2013-02-17 16:34:00,58.6,13.9,29.74,SSE,152,6.7,13.0,17,0.00,,,0.00,WSDL version 420,2013-02-17 22:34:00,
2013-02-17 16:40:00,58.6,13.9,29.74,SSE,155,7.3,13.0,17,0.00,,,0.00,WSDL version 420,2013-02-17 22:40:00,
2013-02-17 16:46:00,58.6,13.9,29.74,South,173,7.6,12.5,17,0.00,,,0.00,WSDL version 420,2013-02-17 22:46:00,
2013-02-17 16:52:00,58.8,14.1,29.74,SSE,165,7.2,12.5,17,0.00,,,0.00,WSDL version 420,2013-02-17 22:52:00,
2013-02-17 16:58:00,58.9,14.2,29.74,SSE,158,6.1,13.2,17,0.00,,,0.00,WSDL version 420,2013-02-17 22:58:00,
2013-02-17 17:04:00,58.9,14.2,29.74,SSW,194,3.8,8.1,17,0.00,,,0.00,WSDL version 420,2013-02-17 23:04:00,
2013-02-17 17:10:00,58.2,13.6,29.74,SSE,149,4.7,7.8,17,0.00,,,0.00,WSDL version 420,2013-02-17 23:10:00,
2013-02-17 17:16:00,56.7,12.3,29.74,SSE,161,5.6,8.5,17,0.00,,,0.00,WSDL version 420,2013-02-17 23:16:00,
2013-02-17 17:22:00,55.6,11.7,29.74,SSE,153,7.4,9.8,18,0.00,,,0.00,WSDL version 420,2013-02-17 23:22:00,
2013-02-17 17:28:00,54.7,12.0,29.71,SSE,148,4.7,9.2,18,0.00,,,0.00,WSDL version 420,2013-02-17 23:28:00,
2013-02-17 17:34:00,53.9,11.4,29.71,SSE,150,5.7,8.9,18,0.00,,,0.00,WSDL version 420,2013-02-17 23:34:00,
2013-02-17 17:40:00,53.4,11.0,29.71,SSE,155,4.8,7.8,18,0.00,,,0.00,WSDL version 420,2013-02-17 23:40:00,
2013-02-17 17:46:00,52.9,10.6,29.74,South,170,3.3,6.5,18,0.00,,,0.00,WSDL version 420,2013-02-17 23:46:00,
2013-02-17 17:52:00,52.4,10.1,29.74,South,180,4.0,6.5,18,0.00,,,0.00,WSDL version 420,2013-02-17 23:52:00,
2013-02-17 17:58:00,52.2,10.0,29.74,SSE,163,4.8,8.1,18,0.00,,,0.00,WSDL version 420,2013-02-17 23:58:00,
2013-02-17 18:04:00,51.9,9.7,29.74,SSE,160,3.7,8.1,18,0.00,,,0.00,WSDL version 420,2013-02-18 00:04:00,
2013-02-17 18:10:00,51.6,10.7,29.74,South,180,3.6,6.3,19,0.00,,,0.00,WSDL version 420,2013-02-18 00:10:00,
2013-02-17 18:16:00,51.4,10.5,29.74,South,176,4.7,7.2,19,0.00,,,0.00,WSDL version 420,2013-02-18 00:16:00,
2013-02-17 18:22:00,51.3,10.4,29.74,SSE,164,3.7,7.8,19,0.00,,,0.00,WSDL version 420,2013-02-18 00:22:00,
2013-02-17 18:28:00,51.0,10.2,29.74,South,169,3.7,6.0,19,0.00,,,0.00,WSDL version 420,2013-02-18 00:28:00,
2013-02-17 18:34:00,51.0,10.2,29.74,SSE,158,4.8,10.5,19,0.00,,,0.00,WSDL version 420,2013-02-18 00:34:00,
2013-02-17 18:40:00,50.8,10.0,29.74,South,169,4.1,6.5,19,0.00,,,0.00,WSDL version 420,2013-02-18 00:40:00,
2013-02-17 18:46:00,50.7,9.9,29.74,SSE,162,5.1,9.8,19,0.00,,,0.00,WSDL version 420,2013-02-18 00:46:00,
2013-02-17 18:52:00,50.5,9.7,29.74,SSE,158,3.0,9.8,19,0.00,,,0.00,WSDL version 420,2013-02-18 00:52:00,
2013-02-17 18:58:00,50.3,9.6,29.74,SSE,154,3.8,7.6,19,0.00,,,0.00,WSDL version 420,2013-02-18 00:58:00,
2013-02-17 19:04:00,50.2,9.5,29.74,SE,143,3.7,7.6,19,0.00,,,0.00,WSDL version 420,2013-02-18 01:04:00,
2013-02-17 19:10:00,50.2,9.5,29.74,SE,145,4.2,7.8,19,0.00,,,0.00,WSDL version 420,2013-02-18 01:10:00,
2013-02-17 19:16:00,50.0,9.4,29.74,SSE,150,3.9,6.0,19,0.00,,,0.00,WSDL version 420,2013-02-18 01:16:00,
2013-02-17 19:22:00,49.8,9.2,29.74,SSE,148,4.3,6.3,19,0.00,,,0.00,WSDL version 420,2013-02-18 01:22:00,
2013-02-17 19:28:00,49.6,9.0,29.74,SSE,150,3.7,6.3,19,0.00,,,0.00,WSDL version 420,2013-02-18 01:28:00,
2013-02-17 19:34:00,49.3,8.8,29.74,SSE,148,2.8,6.3,19,0.00,,,0.00,WSDL version 420,2013-02-18 01:34:00,
2013-02-17 19:40:00,49.1,8.6,29.74,SSE,161,3.4,5.4,19,0.00,,,0.00,WSDL version 420,2013-02-18 01:40:00,
2013-02-17 19:46:00,49.0,8.5,29.74,SSE,158,2.5,4.3,19,0.00,,,0.00,WSDL version 420,2013-02-18 01:46:00,
2013-02-17 19:52:00,48.8,8.4,29.74,SSE,158,3.1,4.0,19,0.00,,,0.00,WSDL version 420,2013-02-18 01:52:00,
2013-02-17 19:58:00,48.7,8.3,29.74,SSE,155,3.3,4.3,19,0.00,,,0.00,WSDL version 420,2013-02-18 01:58:00,
2013-02-17 20:04:00,48.6,8.2,29.74,SSE,154,3.1,4.3,19,0.00,,,0.00,WSDL version 420,2013-02-18 02:04:00,
2013-02-17 20:10:00,48.5,8.1,29.74,SSE,148,3.2,4.3,19,0.00,,,0.00,WSDL version 420,2013-02-18 02:10:00,
2013-02-17 20:16:00,48.4,8.0,29.74,SE,143,4.1,5.6,19,0.00,,,0.00,WSDL version 420,2013-02-18 02:16:00,
2013-02-17 20:22:00,48.4,8.0,29.74,SSE,150,3.8,5.6,19,0.00,,,0.00,WSDL version 420,2013-02-18 02:22:00,
2013-02-17 20:28:00,48.3,8.0,29.74,SE,138,4.0,5.4,19,0.00,,,0.00,WSDL version 420,2013-02-18 02:28:00,
2013-02-17 20:34:00,48.2,7.9,29.74,SSE,158,4.7,6.5,19,0.00,,,0.00,WSDL version 420,2013-02-18 02:34:00,
2013-02-17 20:40:00,48.2,7.9,29.74,SSE,149,4.2,6.5,19,0.00,,,0.00,WSDL version 420,2013-02-18 02:40:00,
2013-02-17 20:46:00,48.2,7.9,29.74,SSE,154,5.9,7.8,19,0.00,,,0.00,WSDL version 420,2013-02-18 02:46:00,
2013-02-17 20:52:00,48.2,7.9,29.74,SSE,151,5.5,7.8,19,0.00,,,0.00,WSDL version 420,2013-02-18 02:52:00,
2013-02-17 20:58:00,48.2,7.9,29.74,SSE,152,5.8,7.8,19,0.00,,,0.00,WSDL version 420,2013-02-18 02:58:00,
2013-02-17 21:04:00,48.2,7.9,29.74,SSE,149,5.0,9.2,19,0.00,,,0.00,WSDL version 420,2013-02-18 03:04:00,
2013-02-17 21:10:00,48.2,7.9,29.74,SE,146,5.2,9.2,19,0.00,,,0.00,WSDL version 420,2013-02-18 03:10:00,
2013-02-17 21:16:00,48.3,7.9,29.74,SSE,151,6.1,9.2,19,0.00,,,0.00,WSDL version 420,2013-02-18 03:16:00,
2013-02-17 21:22:00,48.4,8.0,29.74,SSE,148,7.2,10.1,19,0.00,,,0.00,WSDL version 420,2013-02-18 03:22:00,
2013-02-17 21:28:00,48.4,8.0,29.74,SSE,152,6.4,10.1,19,0.00,,,0.00,WSDL version 420,2013-02-18 03:28:00,
2013-02-17 21:34:00,48.4,8.0,29.74,SE,145,7.1,10.1,19,0.00,,,0.00,WSDL version 420,2013-02-18 03:34:00,
2013-02-17 21:40:00,48.4,8.0,29.74,SSE,149,7.6,13.2,19,0.00,,,0.00,WSDL version 420,2013-02-18 03:40:00,
2013-02-17 21:46:00,48.4,8.0,29.71,SSE,149,5.8,13.2,19,0.00,,,0.00,WSDL version 420,2013-02-18 03:46:00,
2013-02-17 21:52:00,48.2,7.9,29.71,SSE,154,5.7,9.6,19,0.00,,,0.00,WSDL version 420,2013-02-18 03:52:00,
2013-02-17 21:58:00,48.2,7.9,29.74,SSE,149,5.6,9.6,19,0.00,,,0.00,WSDL version 420,2013-02-18 03:58:00,
2013-02-17 22:04:00,48.1,7.8,29.74,SSE,154,6.5,9.8,19,0.00,,,0.00,WSDL version 420,2013-02-18 04:04:00,
2013-02-17 22:10:00,48.0,7.7,29.74,SSE,153,6.0,11.0,19,0.00,,,0.00,WSDL version 420,2013-02-18 04:10:00,
2013-02-17 22:16:00,48.0,7.7,29.71,SSE,150,6.6,11.0,19,0.00,,,0.00,WSDL version 420,2013-02-18 04:16:00,
2013-02-17 22:22:00,48.0,7.7,29.71,SSE,148,6.5,10.5,19,0.00,,,0.00,WSDL version 420,2013-02-18 04:22:00,
2013-02-17 22:28:00,47.9,7.6,29.71,SSE,163,5.2,9.8,19,0.00,,,0.00,WSDL version 420,2013-02-18 04:28:00,
2013-02-17 22:34:00,47.8,7.6,29.71,SSE,149,4.5,13.0,19,0.00,,,0.00,WSDL version 420,2013-02-18 04:34:00,
2013-02-17 22:40:00,47.7,7.4,29.71,SSE,152,8.5,13.0,19,0.00,,,0.00,WSDL version 420,2013-02-18 04:40:00,
2013-02-17 22:46:00,47.7,7.4,29.68,SE,143,6.8,10.7,19,0.00,,,0.00,WSDL version 420,2013-02-18 04:46:00,
2013-02-17 22:52:00,47.7,7.4,29.68,SE,143,7.0,10.3,19,0.00,,,0.00,WSDL version 420,2013-02-18 04:52:00,
2013-02-17 22:58:00,47.7,7.4,29.68,SSE,149,7.3,12.3,19,0.00,,,0.00,WSDL version 420,2013-02-18 04:58:00,
2013-02-17 23:01:00,47.7,7.4,29.68,SE,146,7.0,12.3,19,0.00,,,0.00,WSDL version 420,2013-02-18 05:01:00,
2013-02-17 23:04:00,47.6,7.3,29.68,SSE,161,6.6,14.3,19,0.00,,,0.00,WSDL version 420,2013-02-18 05:04:00,
2013-02-17 23:10:00,47.5,7.3,29.68,SSE,150,7.0,14.3,19,0.00,,,0.00,WSDL version 420,2013-02-18 05:10:00,
2013-02-17 23:13:00,47.5,7.3,29.68,SSE,151,6.6,14.3,19,0.00,,,0.00,WSDL version 420,2013-02-18 05:13:00,
2013-02-17 23:19:00,47.5,7.3,29.68,SSE,150,7.3,12.5,19,0.00,,,0.00,WSDL version 420,2013-02-18 05:19:00,
2013-02-17 23:25:00,47.5,7.3,29.68,SSE,155,7.8,10.7,19,0.00,,,0.00,WSDL version 420,2013-02-18 05:25:00,
2013-02-17 23:31:00,47.5,7.3,29.68,SSE,149,7.3,10.7,19,0.00,,,0.00,WSDL version 420,2013-02-18 05:31:00,
2013-02-17 23:34:00,47.5,7.3,29.68,SSE,158,7.2,10.7,19,0.00,,,0.00,WSDL version 420,2013-02-18 05:34:00,
2013-02-17 23:40:00,47.3,7.1,29.68,SSE,160,6.5,13.0,19,0.00,,,0.00,WSDL version 420,2013-02-18 05:40:00,
2013-02-17 23:46:00,47.3,7.1,29.68,SSE,154,7.0,13.0,19,0.00,,,0.00,WSDL version 420,2013-02-18 05:46:00,
2013-02-17 23:52:00,47.3,7.1,29.68,SE,143,6.4,11.0,19,0.00,,,0.00,WSDL version 420,2013-02-18 05:52:00,
2013-02-17 23:58:00,47.3,7.1,29.68,SSE,162,6.7,11.0,19,0.00,,,0.00,WSDL version 420,2013-02-18 05:58:00,